Weather History for Columbia, MO

Change the Weather History Date:

Sunday, March 31, 2013

  Actual Average Record
Temperature  
Mean Temperature 56 °F 50 °F  
Max Temperature 67 °F 61 °F 86 °F (1940)
Min Temperature 45 °F 39 °F 15 °F (1923)
Degree Days  
Heating Degree Days 9 15  
Month to date heating degree days 814 635  
Since 1 July heating degree days 4397 4582  
Cooling Degree Days 0 0  
Month to date cooling degree days 0 3  
Year to date cooling degree days 1 3  
Growing Degree Days 6 (Base 50)    
Moisture  
Dew Point 44 °F    
Average Humidity 67    
Maximum Humidity 100    
Minimum Humidity 34    
Precipitation  
Precipitation T in 0.12 in 2.04 in (1914)
Month to date precipitation 3.29 2.91  
Year to date precipitation 9.53 7.08  
Snow  
Snow 0.00 in 0.00 in 1.70 in (1911)
Month to date snowfall 10.3 1.7  
Since 1 July snowfall 35.0 17.8  
Snow Depth 0.00 in    
Sea Level Pressure  
Sea Level Pressure 29.92 in    
Wind  
Wind Speed 11 mph (WNW)    
Max Wind Speed 22 mph    
Max Gust Speed 26 mph    
Visibility 6 miles    
Events Fog    
T = Trace of Precipitation, MM = Missing Value Source: NWS Daily Summary

Daily Weather History Graph

Daily Weather History Graph

Search for Another Location

Airport:

Trip Planner

Search our weather history database for the weather conditions in past years. The results will help you decide how hot, cold, wet, or windy it might be!

Date:

Astronomy

Mar. 31, 2013 Rise Set
Actual Time 6:54 AM CDT 7:31 PM CDT
Civil Twilight 6:27 AM CDT 7:58 PM CDT
Nautical Twilight 5:56 AM CDT 8:30 PM CDT
Astronomical Twilight 5:23 AM CDT 9:02 PM CDT
Moon No Moon Rise 9:45 AM CDT (3/31)
Length of Visible Light 13h 30m
Length of Day
12h 37m
Waning Gibbous, 77% of the Moon is Illuminated
Mar 31
Waning Gibbous
Apr 2
Last Quarter
Apr 10
New
Apr 18
First Quarter
Apr 25
Full

Hourly Weather History & Observations

Time (CDT) Temp. Windchill Dew Point Humidity Pressure Visibility Wind Dir Wind Speed Gust Speed Precip Events Conditions
12:54 AM 48.0 °F - 46.0 °F 93% 29.91 in 8.0 mi SSW 4.6 mph - N/A   Scattered Clouds
1:46 AM 46.0 °F 43.9 °F 44.1 °F 93% 29.91 in 1.8 mi WSW 4.6 mph - N/A   Clear
1:54 AM 45.0 °F 41.2 °F 44.1 °F 97% 29.93 in 1.5 mi WSW 6.9 mph - N/A   Clear
1:58 AM 46.0 °F 43.1 °F 44.1 °F 93% 29.92 in 3.0 mi WSW 5.8 mph - N/A   Clear
2:54 AM 46.9 °F - 46.0 °F 97% 29.90 in 4.0 mi West 5.8 mph - N/A   Scattered Clouds
3:20 AM 45.0 °F 42.6 °F 45.0 °F 100% 29.90 in 2.5 mi NNW 4.6 mph - N/A   Mostly Cloudy
3:27 AM 45.0 °F 42.6 °F 44.1 °F 97% 29.90 in 0.8 mi NNW 4.6 mph - N/A   Overcast
3:39 AM 46.0 °F 41.9 °F 44.1 °F 93% 29.91 in 1.8 mi NNW 8.1 mph - N/A   Overcast
3:46 AM 46.9 °F - 46.0 °F 97% 29.91 in 2.5 mi NW 6.9 mph - N/A   Overcast
3:54 AM 46.9 °F - 46.0 °F 97% 29.91 in 2.5 mi NW 5.8 mph - N/A   Overcast
4:50 AM 48.2 °F - 46.4 °F 93% 29.90 in 2.0 mi NW 8.1 mph - N/A   Overcast
4:54 AM 48.0 °F - 46.9 °F 96% 29.91 in 2.5 mi NW 9.2 mph - N/A   Overcast
5:29 AM 48.0 °F - 46.9 °F 96% 29.91 in 1.8 mi West 4.6 mph - N/A   Overcast
5:45 AM 48.0 °F - 46.9 °F 96% 29.91 in 0.5 mi West 5.8 mph - N/A Fog Fog
5:54 AM 48.0 °F - 46.9 °F 96% 29.92 in 0.2 mi WNW 6.9 mph - N/A Fog Fog
6:19 AM 48.0 °F - 46.9 °F 96% 29.91 in 0.2 mi WNW 11.5 mph 16.1 mph N/A Fog Fog
6:24 AM 48.9 °F - 46.9 °F 93% 29.91 in 1.2 mi WSW 8.1 mph 16.1 mph N/A   Overcast
6:26 AM 48.9 °F - 46.9 °F 93% 29.91 in 4.0 mi WSW 8.1 mph - N/A   Overcast
6:34 AM 48.0 °F - 46.9 °F 96% 29.92 in 3.0 mi NNW 10.4 mph - N/A   Overcast
6:37 AM 48.0 °F - 46.9 °F 96% 29.91 in 1.8 mi WNW 6.9 mph - N/A   Overcast
6:51 AM 48.2 °F - 46.4 °F 93% 29.92 in 0.5 mi WNW 8.1 mph - N/A Fog Fog
6:54 AM 48.0 °F - 46.9 °F 96% 29.92 in 0.2 mi NW 6.9 mph - N/A Fog Fog
7:07 AM 46.9 °F - 46.0 °F 97% 29.92 in 0.2 mi WNW 5.8 mph - N/A Fog Fog
7:24 AM 46.9 °F - 46.0 °F 97% 29.93 in 0.2 mi WNW 8.1 mph - N/A Fog Fog
7:54 AM 46.9 °F - 46.0 °F 97% 29.94 in 0.2 mi WNW 6.9 mph - N/A Fog Fog
8:54 AM 48.0 °F - 48.0 °F 100% 29.94 in 5.0 mi WNW 9.2 mph - N/A   Mostly Cloudy
9:13 AM 48.9 °F - 48.0 °F 97% 29.93 in 7.0 mi WNW 9.2 mph - N/A   Scattered Clouds
9:24 AM 48.9 °F - 48.9 °F 100% 29.93 in 10.0 mi NW 9.2 mph - N/A   Clear
9:54 AM 53.1 °F - 48.0 °F 83% 29.91 in 10.0 mi NW 9.2 mph - N/A   Clear
10:54 AM 57.9 °F - 46.0 °F 65% 29.91 in 10.0 mi NW 9.2 mph - N/A   Clear
11:54 AM 61.0 °F - 42.1 °F 50% 29.91 in 10.0 mi WNW 9.2 mph - N/A   Clear
12:54 PM 64.0 °F - 39.0 °F 40% 29.91 in 10.0 mi NW 10.4 mph - N/A   Clear
1:45 PM 64.9 °F - 41.0 °F 42% 29.91 in 10.0 mi West 13.8 mph - N/A   Clear
1:54 PM 64.0 °F - 39.9 °F 41% 29.91 in 10.0 mi West 11.5 mph 20.7 mph N/A   Clear
2:54 PM 66.0 °F - 37.9 °F 36% 29.89 in 10.0 mi WNW 15.0 mph - N/A   Clear
3:54 PM 64.0 °F - 39.9 °F 41% 29.89 in 10.0 mi WNW 13.8 mph 21.9 mph N/A   Partly Cloudy
4:54 PM 64.0 °F - 42.1 °F 45% 29.88 in 10.0 mi WNW 15.0 mph - N/A   Mostly Cloudy
5:54 PM 61.0 °F - 43.0 °F 52% 29.89 in 10.0 mi NW 16.1 mph 24.2 mph 0.00 in   Overcast
6:54 PM 59.0 °F - 41.0 °F 51% 29.91 in 10.0 mi NNW 17.3 mph - N/A   Partly Cloudy
7:54 PM 54.0 °F - 37.9 °F 55% 29.93 in 10.0 mi NW 10.4 mph - N/A   Clear
8:54 PM 53.1 °F - 36.0 °F 52% 29.94 in 10.0 mi NW 6.9 mph - N/A   Clear
9:54 PM 48.0 °F - 35.1 °F 61% 29.96 in 10.0 mi NNW 9.2 mph - N/A   Clear
10:54 PM 48.9 °F - 30.9 °F 50% 29.95 in 10.0 mi North 12.7 mph - N/A   Clear
11:54 PM 46.0 °F 39.6 °F 32.0 °F 58% 29.96 in 10.0 mi North 15.0 mph - N/A   Clear